Hourly Data Report for November 19, 2017

All times are specified in Local Standard Time (LST). Add 1 hour to adjust for Daylight Saving Time where and when it is observed.

GREENWOOD A
NOVA SCOTIA

44°59'00.000" N
64°55'00.000" W
28.00 m
8202000
71397
YZX

Download Data

Hourly Data (November 2017)
Hourly Data Report for November 19, 2017
Temp Definition
°C
Dew Point Temp Definition
°C
Rel Hum Definition
%
Wind Dir Definition
10's deg

Wind Spd Definition
km/h
Visibility Definition
km
Stn Press Definition
kPa
Hmdx Definition


Wind Chill Definition


Weather Definition


TIME
00:00 1.1 -0.9 86   0 24.1 100.54     Mostly Cloudy
01:00 1.8 -0.7 83 3 6 24.1 100.40     Mostly Cloudy
02:00 1.6 -0.9 83 5 7 24.1 100.37     Mostly Cloudy
03:00 2.2 0.0 85 8 9 24.1 100.29     Cloudy
04:00 2.0 0.6 90 6 11 24.1 100.15     Rain Showers
05:00 3.8 2.7 93 5 9 19.3 99.99     Rain Showers
06:00 5.4 4.1 91 6 19 12.9 99.78     Rain Showers
07:00 6.6 5.6 93 7 7 9.7 99.69     Rain Showers,Fog
08:00 9.2 8.1 93 15 28 12.9 99.57     Rain Showers
09:00 10.7 9.3 91 15 28 12.9 99.42     Rain Showers
10:00 12.2 11.2 94 16 30 16.1 99.27     Rain
11:00 14.4 12.7 90 18 28 16.1 99.14     Rain
12:00 15.7 13.6 87 18 28 16.1 98.97     Rain
13:00 16.2 14.1 87 19 26 19.3 98.83     Cloudy
14:00 17.1 13.9 81 18 32 19.3 98.67     Cloudy
15:00 16.8 14.4 86 19 39 12.9 98.47     Rain
16:00 17.2 14.3 83 19 33 6.4 98.40     Rain,Fog
17:00 16.2 13.6 85 22 30 16.1 98.36     Rain
18:00 15.3 12.3 82 20 30 24.1 98.36     Mainly Clear
19:00 15.0 12.0 82 20 24 24.1 98.31     Mainly Clear
20:00 14.1 9.9 76 21 30 24.1 98.34     Mainly Clear
21:00 13.3 9.4 77 22 28 24.1 98.37     Mostly Cloudy
22:00 11.9 7.8 76 26 48 12.9 98.45     Rain Showers
23:00 6.8 4.3 84 25 41 19.3 98.76     Cloudy

Notes on Data Quality.

Legend

  • E = Estimated
  • M = Missing
  • NA = Not Available
  • ‡ = Partner data that is not subject to review by the National Climate Archives
Date modified: